Location: Erdweis
(48.5167°N, 15.3500°E)
Time: 15:31:41
(UTC+00:00)

Cosmos 1844 - Pass Details

Date: 18 September 2020
Orbit: 824 x 866 km, 70.9° (Epoch: 24 October)

Event Time Altitude Azimuth Distance (km) Brightness Sun altitude
Rises 19:26:52 0° 202° (SSW) 3,413 6.8 -23.2°
Reaches altitude 10° 19:29:19 10° 202° (SSW) 2,475 6.0 -23.6°
Maximum altitude 19:35:01 81° 116° (ESE) 862 3.5 -24.3°
Drops below altitude 10° 19:40:40 10° 30° (NNE) 2,462 6.2 -25.1°
Sets 19:43:06 0° 29° (NNE) 3,395 6.9 -25.5°
